Regional Weather Roundup
Issued by NWS

Home | Current Version | Previous Version | Text Only | Print | Product List | Glossary Off
Versions: 1 2 3 4 5 6 7 8 9 10 11 12 13 14 15 16 17 18 19 20 21 22 23 24 25 26 27 28 29 30 31 32 33 34 35 36 37 38 39 40 41 42 43 44 45 46 47 48 49

000
ASUS43 KDMX 301607
RWRIA

WEATHER ROUNDUP FOR IOWA
NATIONAL WEATHER SERVICE DES MOINES IA
1100 AM CDT TUE SEP 30 2014

NOTE: "FAIR" INDICATES FEW OR NO CLOUDS BELOW 12,000 FEET WITH NO
SIGNIFICANT WEATHER AND/OR OBSTRUCTIONS TO VISIBILITY.

* - THESE STATIONS ARE NOT NWS STATIONS...THUS NOT UNDER NWS
QUALITY CONTROL.  THEY ALSO DO NOT REPORT WEATHER SUCH
AS PRECIPITATION OR FOG.

IAZ001>003-012>014-020>022-031>034-043>046-301700-
   NORTHWEST IOWA

CITY           SKY/WX    TMP DP  RH WIND       PRES   REMARKS
CARROLL *      CLOUDY    59  57  94 SE10G17   29.93F
CHEROKEE *     CLOUDY    59  57  94 SE14      29.90S
DENISON *      CLOUDY    66  61  82 SE12      29.88S
LE MARS *      PTSUNNY   61  57  88 VRB6G16   29.86F
ORANGE CITY *  PTSUNNY   63  55  77 SE9G17    29.87S
SHELDON *      PTSUNNY   57  55  94 SE13G22   29.87F
SIOUX CITY     LGT RAIN  63  59  87 SE9       29.86S
SPENCER        CLOUDY    56  52  86 SE16G25   29.92F
STORM LAKE *   FOG       55  55 100 SE14      29.92F VSB 1/2
$$

IAZ055>058-069>071-079>083-090>094-301700-
   SOUTHWEST IOWA

CITY           SKY/WX    TMP DP  RH WIND       PRES   REMARKS
ATLANTIC *     SUNNY     70  61  73 SE9       29.90F
AUDUBON *      MOSUNNY   64  57  77 SE9       29.93S
CLARINDA *     SUNNY     75  61  60 S8        29.91F
COUNCIL BLFS * CLOUDY    68  63  83 S6        29.88R
CRESTON *      SUNNY     66  61  82 E13       29.94F
HARLAN  *      MOSUNNY   70  61  73 SE8G18    29.93S HAZE
LAMONI         PTSUNNY   67  61  81 SE7       29.95F
RED OAK *      SUNNY     73  61  64 S9G16     29.89F HAZE
SHENANDOAH *   MOSUNNY   79  61  53 SE14      29.88F HX  80
$$

IAZ047>049-059>061-072>074-084-301700-
   CENTRAL IOWA

CITY           SKY/WX    TMP DP  RH WIND       PRES   REMARKS
AMES           CLOUDY    57  54  89 E12       29.98S
ANKENY *       CLOUDY    57  57 100 SE12      29.97S
CHARITON *     CLOUDY    59  59 100 E9        29.97S FOG
DES MOINES     CLOUDY    60  56  86 E9        29.96S FOG
GRINNELL*      CLOUDY    55  52  88 E14       30.01S
KNOXVILLE *    CLOUDY    57  55  94 SE9       29.97S FOG
MARSHALLTOWN   CLOUDY    56  52  86 E12       29.99F
PELLA *        CLOUDY    57  55  94 E9        30.00S FOG
PERRY *        CLOUDY    59  57  94 SE10      29.96S
$$

IAZ004>006-015-016-023>025-035-036-301700-
   NORTH CENTRAL IOWA

CITY           SKY/WX    TMP DP  RH WIND       PRES   REMARKS
ALGONA *       CLOUDY    54  52  94 SE12G21   29.96F FOG
CLARION *      CLOUDY    54  54 100 SE9G20    29.98R
ESTHERVILLE    CLOUDY    51  50  96 SE15      29.95S
FORT DODGE *   CLOUDY    55  52  88 SE12G17   29.97S
MASON CITY     CLOUDY    52  49  89 E14       30.01F
FOREST CITY *  CLOUDY    52  50  93 SE12      29.99S
IOWA FALLS *   CLOUDY    54  50  87 E10G18    30.00S
$$

IAZ007>011-017>019-026>030-037>042-050>054-066-301700-
   NORTHEAST IOWA

CITY           SKY/WX    TMP DP  RH WIND       PRES   REMARKS
CHARLES CITY * CLOUDY    52  48  87 E14       30.03S
CLINTON *      CLOUDY    54  46  76 E9        30.07F
DECORAH *      CLOUDY    50  45  81 VRB7G14   30.04S
MONTICELLO *   CLOUDY    52  46  82 E10G16    30.04F
OELWEIN *      CLOUDY    52  46  82 VRB7G14   30.05R
WATERLOO       CLOUDY    53  48  83 SE14      30.02S
$$

IAZ064-065-067-068-078-301700-
   EAST CENTRAL IOWA

CITY           SKY/WX    TMP DP  RH WIND       PRES   REMARKS
IOWA CITY      CLOUDY    55  51  86 E9        30.04S
MT. PLEASANT * CLOUDY    57  54  88 E8        30.01S
MUSCATINE *    CLOUDY    57  50  77 E13       30.03F
$$

IAZ062-063-075>077-085>089-095>099-301700-
   SOUTHEAST IOWA

CITY           SKY/WX    TMP DP  RH WIND       PRES   REMARKS
BURLINGTON     CLOUDY    58  55  90 E12       30.01S
FAIRFIELD *    CLOUDY    57  52  82 E13       30.01S
FORT MADISON * CLOUDY    61  55  82 E7        30.01F FOG
KEOKUK *       CLOUDY    59  57  94 E13       29.99S
OSKALOOSA *    CLOUDY    57  55  94 E8        30.00S FOG
CENTERVILLE *  CLOUDY    59  59 100 E8        29.99S FOG
OTTUMWA        CLOUDY    58  53  84 E14       29.99S
WASHINGTON *   CLOUDY    57  52  82 E12       30.02S
$$

ABBREVIATIONS USED IN REMARKS
   TC - TEMPERATURES IN CELSIUS
  WCI - WIND CHILL INDEX
   HX - HEAT INDEX
  VSB - VISIBILITY
$$




USA.gov is the U.S. government's official web portal to all federal, state and local government web resources and services.